This is the latest recevied weather packets stored in our database for station/object DG4MND-4. If no packets are shown the sender has not sent any weather packets the latest 1 day(s).
| Time | Temp. | Humidity | Pressure | Rain* | Wind** | Luminosity | Snow |
|---|---|---|---|---|---|---|---|
| 1778055074 | 13.33° C | 82% | 1006.1 hPa | 0 mm | - | - | - |
| 1778054471 | 13.33° C | 81% | 1006 hPa | 0 mm | - | - | - |
| 1778053264 | 12.78° C | 84% | 1005.9 hPa | 0 mm | - | - | - |
| 1778052661 | 12.78° C | 84% | 1005.9 hPa | 0 mm | - | - | - |
| 1778052057 | 12.78° C | 86% | 1006.1 hPa | 0 mm | - | - | - |
| 1778051454 | 12.22° C | 87% | 1006.2 hPa | 0 mm | - | - | - |
| 1778050850 | 12.22° C | 88% | 1006.3 hPa | 0 mm | - | - | - |
| 1778050247 | 12.22° C | 89% | 1006.3 hPa | 0 mm | - | - | - |
| 1778049643 | 12.22° C | 90% | 1006.5 hPa | 0 mm | - | - | - |
| 1778048436 | 11.11° C | 91% | 1006.2 hPa | 0 mm | - | - | - |
| 1778047836 | 10.56° C | 92% | 1006.2 hPa | 0 mm | - | - | - |
| 1778046626 | 10° C | 95% | 1006.2 hPa | 0 mm | - | - | - |
| 1778044819 | 9.44° C | 98% | 1006.6 hPa | 0 mm | - | - | - |
| 1778044273 | 9.44° C | 99% | 1006.6 hPa | 0 mm | - | - | - |
| 1778041255 | 7.78° C | 99% | 1006.9 hPa | 0 mm | - | - | - |
| 1778040049 | 7.78° C | 99% | 1007 hPa | 0 mm | - | - | - |
| 1778039445 | 7.22° C | 99% | 1007 hPa | 0 mm | - | - | - |
| 1778038842 | 7.22° C | 99% | 1007.2 hPa | 0 mm | - | - | - |
| 1778038241 | 7.78° C | 99% | 1007.3 hPa | 0 mm | - | - | - |
| 1778037635 | 7.78° C | 99% | 1007.3 hPa | 0 mm | - | - | - |
| 1778037031 | 7.78° C | 98% | 1007.4 hPa | 0 mm | - | - | - |
| 1778036431 | 7.78° C | 98% | 1007.6 hPa | 0 mm | - | - | - |
| 1778035224 | 8.33° C | 97% | 1007.5 hPa | 0 mm | - | - | - |
| 1778034074 | 8.33° C | 97% | 1007.6 hPa | 0 mm | - | - | - |
| 1778033471 | 8.33° C | 96% | 1007.6 hPa | 0 mm | - | - | - |
* Rain latest hour (hover to see other rain measurements)
** Current wind speed in m/s (hover to see current wind gust speed)